Location: Bonny Doon Airfield
(37.0704°N, 122.1252°W)
Time: 01:04:41
(UTC-07:00)

Envisat - Pass Details

Date: 08 October 2017
Orbit: 764 x 766 km, 98.2° (Epoch: 22 October)

Event Time Altitude Azimuth Distance (km) Brightness Sun altitude
Exits shadow 21:01:51 51° 350° (N) 955 3.5 -28.7°
Drops below altitude 10° 21:05:38 10° 348° (NNW) 2,307 5.8 -29.5°
Sets 21:07:57 0° 348° (NNW) 3,237 6.6 -29.9°
